EW5423 Weather Reports


time (UTC)temp
C
wind
direction
speed
KPH
gust
KPH
rain 1hr
cm
rain 24hr
cm
rain mn
cm
humidity
%
barometer
mb
20260506000801 22 234 12.9 22.5 0.00 1.22 0.53 33 1010.8
20260506000302 22 252 8.0 29.0 0.00 1.24 0.53 33 1010.8
20260505230802 23 230 11.3 20.9 0.00 1.35 0.53 30 1010.7
20260505230302 23 229 11.3 37.0 0.00 1.35 0.53 30 1010.8
20260505220802 23 265 19.3 32.2 0.00 1.35 0.53 32 1011.0
20260505220302 23 262 25.7 40.2 0.00 1.35 0.53 32 1011.2
20260505210803 23 247 22.5 33.8 0.00 1.35 0.53 38 1011.2
20260505210302 22 248 22.5 33.8 0.00 1.35 0.53 40 1011.3
20260505200803 21 260 14.5 25.7 0.00 1.35 0.53 51 1011.9
20260505200303 21 235 8.0 24.1 0.00 1.35 0.53 52 1011.9
20260505190803 21 330 8.0 19.3 0.00 1.35 0.53 53 1012.3
20260505190303 21 288 9.7 24.1 0.00 1.35 0.53 55 1012.4
20260505180803 19 271 4.8 9.7 0.00 1.35 0.53 59 1013.0
20260505180303 19 235 4.8 14.5 0.00 1.35 0.53 61 1013.0
20260505170803 17 205 1.6 8.0 0.00 1.35 0.53 71 1013.1
20260505160804 16 199 3.2 8.0 0.00 1.35 0.53 91 1013.0
20260505160304 16 180 1.6 4.8 0.00 1.35 0.53 92 1012.9
20260505150803 15 313 0.0 4.8 0.00 1.35 0.53 93 1012.7
20260505150303 15 2 1.6 4.8 0.00 1.35 0.53 93 1012.6
20260505140258 15 171 0.0 4.8 0.00 1.35 0.53 93 1012.1
20260505120759 14 89 1.6 3.2 0.03 1.32 0.51 91 1011.1
20260505110800 13 23 3.2 4.8 0.05 1.30 0.48 87 1011.5
20260505100759 13 15 8.0 12.9 0.13 1.24 0.43 92 1012.3
20260505100300 13 355 3.2 9.7 0.13 1.24 0.43 92 1012.5
20260505090759 14 120 3.2 4.8 0.13 1.12 0.30 92 1013.3
20260505090300 14 139 3.2 4.8 0.15 1.12 0.30 92 1013.4
20260505080800 15 147 0.0 0.0 0.18 0.99 0.18 92 1014.5
20260505080300 15 147 0.0 4.8 0.15 0.97 0.15 91 1014.6
20260505070301 15 116 0.0 4.8 0.10 0.81 0.00 91 1014.4
20260505060800 15 14 1.6 3.2 0.08 0.71 0.71 91 1014.3
20260505060300 15 71 0.0 9.7 0.08 0.71 0.71 90 1014.2
20260505050801 15 348 0.0 3.2 0.05 0.64 0.64 86 1014.2
20260505050301 15 0 0.0 19.3 0.05 0.64 0.64 86 1014.1
20260505040801 15 297 1.6 4.8 0.03 0.58 0.58 84 1014.1
20260505040301 15 346 6.4 14.5 0.05 0.58 0.58 82 1013.9
20260505030800 13 34 6.4 11.3 0.18 0.56 0.56 79 1014.2
20260505030301 13 16 1.6 14.5 0.18 0.53 0.53 74 1014.4
20260505020801 15 330 6.4 19.3 0.13 0.38 0.38 69 1014.0
20260505020301 15 327 12.9 29.0 0.13 0.36 0.36 67 1013.8
20260505010801 16 10 8.0 12.9 0.13 0.25 0.25 72 1012.4
20260505010302 16 48 3.2 27.4 0.13 0.23 0.23 76 1012.4